[[{"header":{"parameterUnit":"m.s-1","parameterCategory":1,"la1":30.2991,"la2":30.254,"lo1":-89.0895,"lo2":-89.0444,"dy":0.0017,"dx":0.0017,"nx":28,"ny":28,"refTime":"2024-08-08T21:00:00:Z","depth":0,"parameterNumber":2,"parameterNumberName":"U-component_of_WINDS"},"data":[0,0,0,0,0,0,0,0,0,0,0,0,0,0,0,0,0,0,0,0,0,0,0,0,0,0,0,0,0,0,0,0,0,0,0,0,0,0,0,0,0,0,0,0,0,0,0,0,0,0,0,0,0,0,0,0,0,0,0.409,0.4091,0,0.4165,0.4166,0.4166,0.4252,0.4253,0.4255,0.4256,0.433,0.4331,0.4331,0,0,0,0,0,0,0,0,0,0,0,0,0,0.4021,0.4021,0.409,0.4091,0.4092,0.4165,0.4166,0.4167,0.4252,0.4254,0.4255,0.4257,0.433,0.4331,0.4332,0,0,0,0,0,0,0,0,0,0,0,0,0,0.4068,0.4022,0.409,0.4143,0.4149,0.4164,0.4166,0.4167,0.4252,0.4254,0.4256,0.4257,0.4329,0.4331,0.4332,0.43,0,0,0.4335,0.4336,0,0,0,0,0,0,0,0,0.4066,0.4071,0.4135,0.414,0.4146,0.4201,0.4168,0.4211,0.4251,0.4212,0.4256,0.4258,0.4285,0.429,0.43,0.4303,0.4306,0.4335,0.4336,0.4336,0.4337,0,0,0,0,0,0,0,0.4062,0.4068,0.412,0.4135,0.4142,0.4163,0.4172,0.4177,0.4237,0.4216,0.4222,0.423,0.4289,0.4299,0.4302,0.4308,0.4335,0.4336,0.4337,0.4337,0.4289,0.4287,0,0,0,0,0,0,0.4051,0.4065,0.4117,0.4122,0.411,0.4163,0.4173,0.4181,0.4237,0.4248,0.4229,0.4234,0.4296,0.4301,0.4305,0.4271,0.4336,0.4337,0.4338,0.4291,0.4289,0.4287,0,0,0,0,0,0,0.4049,0.4055,0.4114,0.4095,0.4104,0.4162,0.4171,0.4182,0.4192,0.4247,0.4258,0.4227,0.4297,0.4304,0.4301,0.4275,0.4338,0.4339,0.4294,0.4291,0.4288,0.4203,0,0,0,0,0,0,0.4047,0.4054,0.4042,0.4094,0.4105,0.4108,0.4169,0.4182,0.4194,0.4202,0.4249,0.4258,0.4299,0.4299,0.4302,0.4278,0.434,0.4296,0.4292,0.4289,0.4208,0.4197,0.4188,0,0,0,0,0,0.4044,0.4014,0.4041,0.4047,0.4092,0.4107,0.4113,0.4161,0.4191,0.418,0.4216,0.4257,0.4278,0.4298,0.4302,0.4278,0.4298,0.4293,0.4289,0.4212,0.4199,0.4188,0,0,0,0,0,0,0.3956,0.4022,0.4052,0.4039,0.4067,0.4121,0.4108,0.4146,0.4165,0.4171,0.4231,0.424,0.423,0.4255,0.4275,0.425,0.4294,0.429,0.4234,0.4222,0.4212,0.4205,0.4341,0,0,0,0,0,0.3936,0.3943,0.4,0.3983,0.3995,0.4049,0.4057,0.4093,0.4124,0.4135,0.4171,0.4199,0.4212,0.4219,0.4234,0.4213,0.4224,0.4199,0.4189,0.418,0.4175,0.4166,0.4155,0.4272,0.4272,0.4272,0,0,0.3892,0.3929,0.393,0.3966,0.3992,0.3997,0.4058,0.4061,0.4066,0.4136,0.4135,0.4162,0.4198,0.4185,0.4182,0.4205,0.4146,0.4175,0.4168,0.4167,0.416,0.4149,0.4139,0.4269,0.427,0.427,0,0,0.3816,0.3845,0.3834,0.3859,0.3898,0.3934,0.3931,0.3981,0.4002,0.4003,0.4055,0.4062,0.4083,0.4106,0.412,0.4056,0.4094,0.4059,0.4005,0.3995,0.3986,0.3978,0.3953,0.3944,0.4055,0.4055,0.4054,0,0.3756,0.3767,0.3823,0.3823,0.3837,0.3903,0.3891,0.3913,0.3954,0.3962,0.3988,0.4017,0.4046,0.404,0.4024,0.4034,0.4032,0.4052,0.3983,0.3976,0.3969,0.3946,0.3937,0.405,0.405,0.4051,0.4051,0,0.3692,0.3699,0.3685,0.3724,0.3737,0.3731,0.3786,0.3793,0.3828,0.3862,0.3862,0.3899,0.3923,0.3925,0.3959,0.3924,0.3937,0.3972,0.4017,0.3952,0.3932,0.3924,0.4043,0.4045,0.4046,0.4048,0,0,0.3558,0.3631,0.3624,0.3643,0.3692,0.3698,0.3696,0.372,0.3724,0.3752,0.375,0.3769,0.3802,0.3819,0.3856,0.3848,0.3793,0.3885,0.3887,0.3865,0.3756,0.3726,0.3715,0.382,0.3819,0.3818,0.3752,0,0.3488,0.3488,0.354,0.3525,0.3532,0.3596,0.3595,0.3624,0.3656,0.3667,0.3703,0.3714,0.3759,0.3769,0.3764,0.38,0.3771,0.3807,0.3818,0.3818,0.3804,0.3705,0.3674,0.361,0.3745,0.3743,0.3742,0,0.3406,0.3429,0.3415,0.3466,0.3471,0.3468,0.3495,0.3505,0.354,0.3565,0.3584,0.3628,0.3629,0.3674,0.3677,0.3699,0.3708,0.3727,0.3726,0.3726,0.3773,0.37,0.3591,0.358,0.3731,0.3731,0.3732,0,0.3307,0.3336,0.3331,0.3346,0.3405,0.3402,0.3426,0.3464,0.3476,0.35,0.3508,0.3532,0.3544,0.3561,0.361,0.3638,0.3607,0.3656,0.3625,0.3624,0.3613,0.3612,0.35,0.3623,0.3623,0.3623,0.3623,0,0.3222,0.321,0.3288,0.3284,0.3274,0.3334,0.3322,0.3353,0.3386,0.339,0.3448,0.345,0.3516,0.3526,0.3565,0.3561,0.3566,0.3585,0.3595,0.3578,0.3575,0.3582,0.3586,0.3621,0.3621,0.3622,0.3622,0,0.3108,0.3159,0.3158,0.3216,0.323,0.3219,0.3269,0.3268,0.3306,0.331,0.3314,0.3372,0.3387,0.3439,0.3467,0.3493,0.3475,0.3496,0.3463,0.3469,0.3435,0.3436,0.3321,0.3308,0.3441,0.344,0.3439,0,0.3048,0.3041,0.3098,0.3105,0.3128,0.3139,0.3151,0.3211,0.3222,0.3263,0.3258,0.3278,0.3296,0.3317,0.3361,0.3383,0.3403,0.3362,0.3407,0.339,0.34,0.3398,0.3398,0.335,0.3349,0.3347,0.3346,0,0.2936,0.2963,0.2979,0.3005,0.3019,0.3042,0.3068,0.3071,0.3138,0.3147,0.3164,0.3178,0.3208,0.3226,0.3255,0.3281,0.3324,0.3333,0.3326,0.3307,0.3287,0.3295,0.3433,0.3334,0.3335,0.3336,0.3337,0.3337,0.2846,0.2843,0.2883,0.2899,0.2926,0.295,0.2952,0.2991,0.3006,0.3034,0.307,0.3081,0.3119,0.3163,0.3186,0.3196,0.3219,0.3211,0.3208,0.3204,0.3195,0.3288,0.3202,0.3202,0.3203,0.3203,0.3203,0,0.2735,0.2765,0.278,0.2816,0.2829,0.2871,0.2903,0.2911,0.2921,0.2953,0.2971,0.299,0.3009,0.3057,0.308,0.3079,0.31,0.3083,0.3082,0.3087,0.3174,0.3176,0.3066,0.3066,0.3066,0.3066,0.3066,0.3066,0.2679,0.2675,0.2707,0.2717,0.2747,0.276,0.2774,0.2797,0.2822,0.2841,0.2858,0.2889,0.2928,0.2955,0.2974,0.2988,0.2993,0.2969,0.2989,0.3068,0.3081,0.3093,0.3095,0.297,0.297,0.2901,0.29,0.2899]},{"header":{"parameterUnit":"m.s-1","parameterCategory":1,"la1":30.2991,"la2":30.254,"lo1":-89.0895,"lo2":-89.0444,"dy":0.0017,"dx":0.0017,"nx":28,"ny":28,"refTime":"2024-08-08T21:00:00:Z","depth":0,"parameterNumber":3,"parameterNumberName":"V-component_of_WINDS"},"data":[0,0,0,0,0,0,0,0,0,0,0,0,0,0,0,0,0,0,0,0,0,0,0,0,0,0,0,0,0,0,0,0,0,0,0,0,0,0,0,0,0,0,0,0,0,0,0,0,0,0,0,0,0,0,0,0,0,0,-4.7198,-4.7198,0,-4.7232,-4.7232,-4.7232,-4.7122,-4.7119,-4.7116,-4.7112,-4.7145,-4.7148,-4.7152,0,0,0,0,0,0,0,0,0,0,0,0,0,-4.7035,-4.7039,-4.7198,-4.7198,-4.7199,-4.7232,-4.7232,-4.7232,-4.7123,-4.7119,-4.7115,-4.7111,-4.7143,-4.7148,-4.7153,0,0,0,0,0,0,0,0,0,0,0,0,0,-4.7091,-4.704,-4.7198,-4.7148,-4.7144,-4.7232,-4.7232,-4.7233,-4.7124,-4.7119,-4.7114,-4.7109,-4.7142,-4.7147,-4.7153,-4.729,0,0,-4.7171,-4.7174,0,0,0,0,0,0,0,0,-4.7088,-4.7097,-4.7155,-4.7152,-4.7147,-4.7168,-4.7186,-4.7252,-4.7125,-4.7131,-4.7112,-4.7107,-4.7156,-4.7161,-4.7178,-4.7291,-4.7293,-4.7172,-4.7176,-4.7178,-4.718,0,0,0,0,0,0,0,-4.7084,-4.7095,-4.7211,-4.7156,-4.7151,-4.7123,-4.7125,-4.7198,-4.7171,-4.713,-4.7122,-4.7128,-4.7153,-4.7172,-4.7178,-4.7293,-4.7172,-4.7177,-4.7181,-4.7183,-4.7519,-4.7524,0,0,0,0,0,0,-4.7087,-4.7093,-4.721,-4.7212,-4.7105,-4.713,-4.7133,-4.7166,-4.717,-4.7166,-4.7132,-4.7123,-4.7165,-4.7171,-4.7178,-4.7338,-4.7178,-4.7184,-4.7187,-4.7514,-4.752,-4.7526,0,0,0,0,0,0,-4.7084,-4.7099,-4.7209,-4.715,-4.7162,-4.7138,-4.7177,-4.7169,-4.7189,-4.7172,-4.7166,-4.7157,-4.7161,-4.717,-4.7263,-4.7338,-4.7186,-4.7192,-4.7508,-4.7516,-4.7523,-4.7659,0,0,0,0,0,0,-4.708,-4.7099,-4.7151,-4.7152,-4.7166,-4.7294,-4.7181,-4.7174,-4.7199,-4.7187,-4.7194,-4.719,-4.7158,-4.7255,-4.7269,-4.7343,-4.7196,-4.7501,-4.7511,-4.7521,-4.7648,-4.7671,-4.769,0,0,0,0,0,-4.7075,-4.7188,-4.7154,-4.7169,-4.7231,-4.7299,-4.7306,-4.7268,-4.7206,-4.7258,-4.7247,-4.719,-4.7327,-4.7265,-4.728,-4.7357,-4.7496,-4.7508,-4.752,-4.7638,-4.7666,-4.769,0,0,0,0,0,0,-4.7195,-4.7187,-4.715,-4.7267,-4.7284,-4.728,-4.7344,-4.7299,-4.7334,-4.7321,-4.7271,-4.7273,-4.7375,-4.7375,-4.7306,-4.7489,-4.7401,-4.7416,-4.7485,-4.7512,-4.7533,-4.7531,-4.7201,0,0,0,0,0,-4.7235,-4.7292,-4.7281,-4.7385,-4.7396,-4.7369,-4.7397,-4.7366,-4.7382,-4.7388,-4.7384,-4.7401,-4.7448,-4.748,-4.7522,-4.7647,-4.7646,-4.7707,-4.7729,-4.7746,-4.7761,-4.7826,-4.7853,-4.7566,-4.7566,-4.7566,0,0,-4.7319,-4.7321,-4.736,-4.7409,-4.7419,-4.7478,-4.7376,-4.7443,-4.7485,-4.7398,-4.7486,-4.7483,-4.7499,-4.7608,-4.7656,-4.7612,-4.784,-4.7762,-4.7776,-4.7781,-4.7841,-4.7869,-4.7893,-4.7574,-4.7573,-4.7571,0,0,-4.7501,-4.7509,-4.7596,-4.7608,-4.7625,-4.7606,-4.7627,-4.763,-4.7625,-4.7712,-4.7648,-4.7697,-4.7779,-4.7793,-4.781,-4.7997,-4.7946,-4.8012,-4.8124,-4.8188,-4.8211,-4.8231,-4.8297,-4.8322,-4.8026,-4.8027,-4.8027,0,-4.7602,-4.7689,-4.7647,-4.7718,-4.7741,-4.7665,-4.7753,-4.7766,-4.7796,-4.7813,-4.7763,-4.7864,-4.7868,-4.798,-4.8026,-4.8042,-4.8064,-4.8011,-4.8211,-4.8231,-4.8248,-4.8311,-4.8336,-4.8035,-4.8034,-4.8033,-4.8032,0,-4.7813,-4.7874,-4.7943,-4.7974,-4.8005,-4.8084,-4.8052,-4.8088,-4.8054,-4.804,-4.8129,-4.8133,-4.8174,-4.8198,-4.8165,-4.8305,-4.8277,-4.822,-4.813,-4.8285,-4.8343,-4.8366,-4.8046,-4.8043,-4.8041,-4.8039,0,0,-4.8073,-4.8079,-4.8105,-4.8118,-4.813,-4.8176,-4.8251,-4.8292,-4.8324,-4.8346,-4.8408,-4.8478,-4.8426,-4.8446,-4.8413,-4.847,-4.8618,-4.8406,-4.8405,-4.8445,-4.8771,-4.8814,-4.8843,-4.8583,-4.8588,-4.8591,-4.877,0,-4.8252,-4.8382,-4.8345,-4.8474,-4.853,-4.8458,-4.8523,-4.8538,-4.8527,-4.8571,-4.8558,-4.8609,-4.8536,-4.8547,-4.86,-4.8589,-4.8682,-4.8575,-4.8639,-4.8642,-4.8638,-4.8873,-4.8919,-4.9088,-4.8792,-4.8796,-4.8799,0,-4.8479,-4.8511,-4.8647,-4.8649,-4.8671,-4.8731,-4.8765,-4.8809,-4.8823,-4.881,-4.8833,-4.8789,-4.8861,-4.8771,-4.887,-4.8798,-4.8822,-4.882,-4.8825,-4.883,-4.873,-4.8885,-4.9141,-4.9167,-4.8834,-4.8831,-4.8829,0,-4.8655,-4.8732,-4.8822,-4.8836,-4.8841,-4.8885,-4.8889,-4.8898,-4.8925,-4.8954,-4.8971,-4.9008,-4.9029,-4.9059,-4.9026,-4.8963,-4.9129,-4.9036,-4.9121,-4.9122,-4.9159,-4.9158,-4.9424,-4.9175,-4.9174,-4.9174,-4.9173,0,-4.8859,-4.8945,-4.8902,-4.8958,-4.9051,-4.9007,-4.91,-4.9096,-4.9105,-4.9158,-4.9097,-4.9148,-4.9101,-4.9148,-4.9122,-4.9207,-4.9217,-4.9209,-4.9201,-4.9215,-4.9216,-4.923,-4.9217,-4.9181,-4.9179,-4.9178,-4.9177,0,-4.9072,-4.9046,-4.9141,-4.9138,-4.9139,-4.9208,-4.9205,-4.9256,-4.9241,-4.9308,-4.9322,-4.9297,-4.9348,-4.9318,-4.937,-4.9353,-4.9464,-4.944,-4.946,-4.9454,-4.954,-4.9533,-4.9825,-4.986,-4.9589,-4.9591,-4.9593,0,-4.9204,-4.9268,-4.9273,-4.9304,-4.9313,-4.9364,-4.9392,-4.935,-4.9381,-4.9402,-4.945,-4.9496,-4.9531,-4.9616,-4.9602,-4.9642,-4.9618,-4.9718,-4.9624,-4.9635,-4.962,-4.9617,-4.9623,-4.9737,-4.974,-4.9743,-4.9745,0,-4.9442,-4.9426,-4.9468,-4.9506,-4.954,-4.9568,-4.959,-4.9619,-4.9578,-4.9615,-4.9668,-4.9695,-4.9748,-4.9794,-4.9828,-4.983,-4.9781,-4.9774,-4.9796,-4.9811,-4.982,-4.9816,-4.9512,-4.9768,-4.9766,-4.9764,-4.9763,-4.9762,-4.9618,-4.9672,-4.9683,-4.9732,-4.9745,-4.9767,-4.9815,-4.9805,-4.9848,-4.9889,-4.9861,-4.9923,-4.9934,-4.9974,-4.9983,-5.003,-4.9989,-5.0021,-5.0029,-5.0037,-5.0049,-4.9812,-5.0035,-5.0035,-5.0034,-5.0033,-5.0033,0,-4.9853,-4.9856,-4.9902,-4.9935,-4.9974,-4.9924,-4.9946,-4.9981,-5.0036,-5.0051,-5.0087,-5.0146,-5.0191,-5.018,-5.022,-5.026,-5.0238,-5.0272,-5.0268,-5.027,-5.0083,-5.006,-5.0289,-5.0289,-5.0288,-5.0288,-5.0288,-5.0288,-4.9979,-5.0067,-5.0053,-5.0146,-5.0149,-5.0209,-5.0226,-5.0246,-5.0258,-5.0327,-5.0364,-5.0357,-5.0362,-5.0401,-5.044,-5.0435,-5.0453,-5.0495,-5.0483,-5.0308,-5.0283,-5.0259,-5.0237,-5.0499,-5.0499,-5.0665,-5.0667,-5.0668]}]]